www.pogodaiklimat.ru

Погода и климат >> Архив погоды >> Бразилия >> Рио-де-Жанейро >> Макаэ


ПОГОДА в Макаэ

  • Прогноз погоды в Макаэ
  • Монитор погоды в Макаэ

АРХИВ ПОГОДЫ в Макаэ

Время (UTC), дата Ветер
(напр.,м/с)
 
Видим.   Явления Облачность Т
(С)
Тd
(С)
f
(%)
Тe
(С)
Тes
(С)
Комфортность P
(гПа)
Po
(гПа)
Тmin
(С)
Tmax
(С)
R
(мм)
R24
(мм)
S
(см)
16 19.05 СВ 1
{3}
н/о н/о +24.7 +21.3 81 +31 +31 очень
душно
1016.1 1013.2
17 19.05 СЗ 1
{2}
н/о н/о +23.4 +20.8 85 +31 +31 очень
душно
1015.6 1012.7
18 19.05 З 1
{3}
н/о н/о +21.8 +20.6 93 +28 +28 душно 1015.5 1012.6 1
19 19.05 СЗ 1
{2}
н/о н/о +22.4 +21.1 92 +29 +29 очень
душно
1015.8 1012.9 0.2
20 19.05 СЗ 1
{2}
н/о н/о +21.7 +20.4 92 +27 +27 душно 1016.2 1013.3
21 19.05 СЗ 1
{2}
н/о н/о +21.2 +20.0 93 +26 +26 душно 1016.2 1013.3
22 19.05 СВ 2
{4}
н/о н/о +21.2 +20.2 94 +26 +26 душно 1017.0 1014.1 0.4
23 19.05 СЗ 1
{4}
н/о н/о +20.9 +20.0 95 +27 +27 душно 1017.1 1014.2 0.8
00 20.05 С 1
{2}
н/о н/о +20.6 +19.7 95 +26 +26 душно 1016.8 1013.9
01 20.05 С 1
{1}
н/о н/о +20.0 +19.1 95 +25 +25 комфорт 1016.8 1013.9
02 20.05 СЗ 1
{1}
н/о н/о +20.1 +19.3 95 +25 +25 комфорт 1016.6 1013.7
03 20.05 С 1
{1}
н/о н/о +20.0 +19.2 95 +25 +25 комфорт 1016.1 1013.2
04 20.05 штиль 0
{2}
н/о н/о +19.9 +19.0 95 +23 +23 комфорт 1015.6 1012.7
05 20.05 СЗ 1
{1}
н/о н/о +20.3 +19.2 93 +26 +26 душно 1015.1 1012.2
06 20.05 штиль 0
{1}
н/о н/о +19.8 +18.8 94 +23 +23 комфорт 1015.1 1012.2
07 20.05 СЗ 1
{1}
н/о н/о +19.4 +18.7 96 +23 +23 комфорт 1014.8 1011.9
08 20.05 СЗ 1
{1}
н/о н/о +19.3 +18.6 96 +23 +23 комфорт 1014.8 1011.9
09 20.05 СЗ 1
{1}
н/о н/о +19.1 +18.5 96 +23 +23 комфорт 1015.0 1012.1
10 20.05 СЗ 1
{1}
н/о н/о +20.8 +20.1 96 +27 +27 душно 1015.5 1012.6
11 20.05 З 1
{1}
н/о н/о +23.3 +20.1 82 +30 +30 очень
душно
1015.8 1012.9
12 20.05 З 1
{1}
н/о н/о +25.3 +20.5 75 +31 +31 очень
душно
1016.4 1013.5 0.2
13 20.05 СВ 1
{2}
н/о н/о +27.2 +20.9 68 +34 +34 очень
душно
1016.1 1013.3
14 20.05 ЮВ 1
{2}
н/о н/о +26.8 +21.3 72 +34 +34 очень
душно
1015.6 1012.8
15 20.05 ЮВ 1
{3}
н/о н/о +27.1 +21.8 73 +35 +35 очень
душно
1014.9 1012.1
16 20.05 ЮВ 1
{3}
н/о н/о +26.9 +21.1 71 +34 +34 очень
душно
1014.3 1011.5
17 20.05 ЮВ 1
{3}
н/о н/о +26.6 +21.8 75 +34 +34 очень
душно
1013.9 1011.1
18 20.05 ЮВ 1
{3}
н/о н/о +25.1 +21.9 82 +32 +32 очень
душно
1014.1 1011.2
19 20.05 Ю 1
{2}
н/о н/о +24.1 +22.1 89 +31 +31 очень
душно
1014.4 1011.5
20 20.05 Ю 1
{2}
н/о н/о +23.3 +21.8 91 +32 +32 очень
душно
1014.7 1011.8
21 20.05 Ю 1
{1}
н/о н/о +22.9 +21.5 92 +31 +31 очень
душно
1015.2 1012.3
22 20.05 З 1
{1}
н/о н/о +22.3 +21.3 94 +29 +29 очень
душно
1015.8 1012.9
23 20.05 ЮЗ 1
{1}
н/о н/о +22.0 +21.2 95 +28 +28 душно 1016.4 1013.5
00 21.05 З 1
{1}
н/о н/о +21.8 +21.0 95 +28 +28 душно 1016.5 1013.6
01 21.05 З 1
{1}
н/о н/о +21.5 +20.8 96 +27 +27 душно 1016.5 1013.6
02 21.05 СЗ 1
{1}
н/о н/о +21.1 +20.4 96 +26 +26 душно 1016.3 1013.4
03 21.05 СЗ 1
{1}
н/о н/о +20.9 +20.3 96 +27 +27 душно 1016.1 1013.2
04 21.05 ЮЗ 1
{2}
н/о н/о +20.5 +19.8 96 +26 +26 душно 1015.7 1012.8
05 21.05 З 1
{1}
н/о н/о +20.6 +20.0 96 +27 +27 душно 1015.6 1012.7
06 21.05 З 1
{1}
н/о н/о +20.4 +19.8 96 +26 +26 душно 1015.0 1012.1
07 21.05 СЗ 1
{1}
н/о н/о +20.1 +19.5 96 +25 +25 комфорт 1014.7 1011.8
08 21.05 З 1
{1}
н/о н/о +19.6 +19.0 96 +24 +24 комфорт 1015.1 1012.2
09 21.05 З 1
{1}
н/о н/о +19.3 +18.8 97 +23 +23 комфорт 1015.7 1012.8
10 21.05 СЗ 1
{1}
н/о н/о +20.3 +19.7 96 +26 +26 душно 1016.2 1013.3
11 21.05 СЗ 1
{1}
н/о н/о +23.5 +22.7 95 +31 +31 очень
душно
1016.6 1013.7
12 21.05 С 1
{1}
н/о н/о +25.8 +21.4 77 +33 +33 очень
душно
1016.7 1013.8
13 21.05 ЮВ 1
{2}
н/о н/о +26.3 +20.8 72 +33 +33 очень
душно
1016.5 1013.6
14 21.05 В 1
{2}
н/о н/о +28.0 +21.7 69 +36 +36 очень
душно
1015.8 1013.0 0.2
15 21.05 ЮВ 1
{2}
н/о н/о +27.5 +20.8 67 +34 +34 очень
душно
1015.1 1012.3
16 21.05 ЮВ 1
{2}
н/о н/о +27.3 +20.6 67 +34 +34 очень
душно
1014.3 1011.5
17 21.05 ЮВ 1
{3}
н/о н/о +27.1 +20.5 67 +34 +34 очень
душно
1013.8 1011.0
18 21.05 ЮВ 1
{2}
н/о н/о +26.1 +20.3 70 +32 +32 очень
душно
1013.7 1010.9
19 21.05 Ю 1
{2}
н/о н/о +25.3 +20.8 76 +32 +32 очень
душно
1013.9 1011.0
20 21.05 Ю 1
{2}
н/о н/о +22.6 +20.7 89 +29 +29 очень
душно
1014.5 1011.6
21 21.05 ЮВ 1
{1}
н/о н/о +23.0 +21.2 90 +31 +31 очень
душно
1015.1 1012.2
22 21.05 СВ 1
{1}
н/о н/о +22.7 +21.0 90 +30 +30 очень
душно
1015.3 1012.4
23 21.05 СВ 1
{1}
н/о н/о +22.6 +21.2 92 +30 +30 очень
душно
1015.6 1012.7
00 22.05 СЗ 1
{1}
н/о н/о +22.1 +21.1 94 +29 +29 очень
душно
1015.9 1013.0
01 22.05 СВ 1
{1}
н/о н/о +22.0 +21.1 95 +28 +28 душно 1015.7 1012.8
02 22.05 С 1
{1}
н/о н/о +21.8 +21.0 95 +28 +28 душно 1015.5 1012.6
03 22.05 СВ 1
{2}
н/о н/о +21.9 +21.0 95 +28 +28 душно 1015.3 1012.4
04 22.05 СВ 1
{2}
н/о н/о +21.9 +20.7 93 +28 +28 душно 1014.9 1012.0
05 22.05 СВ 2
{3}
н/о н/о +21.9 +20.6 92 +28 +28 душно 1014.5 1011.6
06 22.05 СВ 1
{3}
н/о н/о +21.5 +20.4 93 +27 +27 душно 1013.9 1011.0
07 22.05 С 1
{2}
н/о н/о +20.8 +19.9 95 +27 +27 душно 1013.9 1011.0
08 22.05 С 1
{1}
н/о н/о +20.3 +19.5 95 +26 +26 душно 1014.2 1011.3
09 22.05
{1}
н/о н/о +20.2 +19.5 96 1014.4 1011.5
10 22.05 СЗ 1
{1}
н/о н/о +21.3 +20.6 96 +27 +27 душно 1014.7 1011.8
11 22.05 С 1
{2}
н/о н/о +23.7 +20.3 81 +29 +29 душно 1015.0 1012.1
12 22.05
{2}
н/о н/о +25.9 +20.2 71 1015.3 1012.4
13 22.05
{2}
н/о н/о +27.5 +20.0 64 1015.1 1012.3
14 22.05 ЮЗ 1
{2}
н/о н/о +29.9 +21.3 60 +38 +38 очень
душно
1014.5 1011.7
15 22.05 Ю 1
{2}
н/о н/о +29.2 +22.3 66 +38 +38 очень
душно
1013.9 1011.1
16 22.05 Ю 1
{2}
н/о н/о +28.5 +22.1 68 +37 +37 очень
душно
1013.2 1010.4
17 22.05 Ю 1
{2}
н/о н/о +28.4 +20.8 63 +35 +35 очень
душно
1012.7 1009.9
18 22.05 Ю 1
{2}
н/о н/о +27.5 +20.4 65 +34 +34 очень
душно
1012.7 1009.9
19 22.05 Ю 1
{2}
н/о н/о +26.8 +22.0 75 +35 +35 очень
душно
1012.9 1010.1
20 22.05 Ю 1
{2}
н/о н/о +23.3 +21.3 89 +31 +31 очень
душно
1013.4 1010.5
21 22.05 Ю 1
{1}
н/о н/о +22.9 +21.7 93 +31 +31 очень
душно
1014.0 1011.1
22 22.05 З 1
{1}
н/о н/о +22.6 +21.5 94 +30 +30 очень
душно
1014.7 1011.8
23 22.05 З 1
{1}
н/о н/о +21.9 +20.9 94 +28 +28 душно 1015.2 1012.3
00 23.05 штиль 0
{1}
н/о н/о +21.9 +21.1 95 +28 +28 душно 1015.3 1012.4
01 23.05 З 1
{1}
н/о н/о +21.2 +20.5 96 +26 +26 душно 1015.4 1012.5
02 23.05 С 1
{1}
н/о н/о +20.7 +20.0 96 +27 +27 душно 1015.2 1012.3
03 23.05 СЗ 1
{1}
н/о н/о +20.3 +19.6 96 +26 +26 душно 1014.9 1012.0
04 23.05 СЗ 1
{1}
н/о н/о +19.8 +19.1 96 +24 +24 комфорт 1014.5 1011.6
05 23.05 СВ 1
{1}
н/о н/о +19.4 +18.7 96 +23 +23 комфорт 1014.2 1011.3
06 23.05 С 1
{1}
н/о н/о +19.7 +19.1 96 +24 +24 комфорт 1013.5 1010.6
08 23.05 С 1
{1}
н/о н/о +19.1 +18.4 96 +23 +23 комфорт 1013.6 1010.7
09 23.05 С 1
{1}
н/о н/о +18.7 +18.1 96 +21 +21 комфорт 1014.0 1011.1
10 23.05 СВ 1
{1}
н/о н/о +19.8 +19.2 96 +24 +24 комфорт 1014.6 1011.7
11 23.05 СВ 1
{2}
н/о н/о +22.6 +20.5 88 +29 +29 очень
душно
1014.8 1011.9
12 23.05 СВ 2
{3}
н/о н/о +25.5 +20.6 74 +32 +32 очень
душно
1015.2 1012.3
13 23.05 СВ 2
{3}
н/о н/о +26.8 +20.9 70 +34 +34 очень
душно
1014.9 1012.1
14 23.05 СВ 1
{3}
н/о н/о +28.8 +20.4 60 +35 +35 очень
душно
1013.9 1011.1
15 23.05 СВ 2
{3}
н/о н/о +30.6 +20.2 54 +37 +37 очень
душно
1012.8 1010.0 0.2
16 23.05 В 2
{3}
н/о н/о +30.0 +19.7 54 +36 +36 очень
душно
1011.9 1009.1
17 23.05 В 1
{3}
н/о н/о +28.7 +21.2 64 +36 +36 очень
душно
1011.0 1008.2
18 23.05 В 2
{4}
н/о н/о +27.9 +21.8 69 +36 +36 очень
душно
1010.7 1007.9
19 23.05 В 2
{3}
н/о н/о +26.9 +22.1 75 +35 +35 очень
душно
1011.1 1008.3
20 23.05 В 2
{3}
н/о н/о +25.4 +23.0 87 +34 +34 очень
душно
1011.7 1008.9
21 23.05 В 2
{3}
н/о н/о +25.2 +23.0 88 +34 +34 очень
душно
1012.2 1009.4
22 23.05 СВ 1
{3}
н/о н/о +24.5 +21.9 85 +31 +31 очень
душно
1013.1 1010.2
23 23.05 СВ 1
{2}
н/о н/о +23.4 +21.5 89 +32 +32 очень
душно
1013.4 1010.5
00 24.05
{1}
н/о н/о +23.1 +21.9 93 1013.6 1010.7
01 24.05 СВ 1
{1}
н/о н/о +22.4 +21.4 94 +29 +29 очень
душно
1013.5 1010.6
02 24.05 С 1
{2}
н/о н/о +21.7 +20.6 93 +27 +27 душно 1013.2 1010.3
03 24.05 С 1
{1}
н/о н/о +21.1 +19.8 92 +26 +26 душно 1013.0 1010.1
04 24.05 С 1
{1}
н/о н/о +20.9 +19.9 94 +27 +27 душно 1012.7 1009.8
05 24.05 З 1
{1}
н/о н/о +20.3 +19.3 94 +26 +26 душно 1012.3 1009.4
06 24.05 С 1
{1}
н/о н/о +19.7 +18.9 95 +24 +24 комфорт 1011.8 1008.9
07 24.05 СЗ 1
{1}
н/о н/о +19.9 +19.2 96 +25 +25 комфорт 1011.5 1008.6
08 24.05 С 1
{1}
н/о н/о +19.6 +18.9 96 +24 +24 комфорт 1011.6 1008.7
09 24.05 З 1
{1}
н/о н/о +19.4 +18.8 96 +23 +23 комфорт 1012.0 1009.1
10 24.05 штиль 0
{1}
н/о н/о +21.0 +20.4 96 +26 +26 душно 1012.5 1009.6
11 24.05 З 1
{1}
н/о н/о +23.2 +20.3 84 +30 +30 очень
душно
1012.9 1010.0
12 24.05 СВ 1
{1}
н/о н/о +25.6 +21.1 76 +32 +32 очень
душно
1012.8 1010.0
13 24.05 СВ 1
{2}
н/о н/о +27.2 +21.2 70 +34 +34 очень
душно
1012.4 1009.6
14 24.05 В 1
{2}
н/о н/о +27.6 +21.0 67 +35 +35 очень
душно
1011.5 1008.7
15 24.05 В 2
{3}
н/о н/о +28.0 +22.2 71 +37 +37 очень
душно
1010.5 1007.7
16 24.05 В 2
{3}
н/о н/о +29.1 +22.1 66 +38 +38 очень
душно
1009.5 1006.7
17 24.05 В 2
{3}
н/о н/о +29.5 +21.8 63 +38 +38 очень
душно
1008.8 1006.0
18 24.05 СВ 1
{3}
н/о н/о +30.1 +19.8 54 +36 +36 очень
душно
1009.1 1006.3
19 24.05 Ю 1
{4}
н/о н/о +25.1 +22.4 85 +33 +33 очень
душно
1009.9 1007.1
20 24.05 Ю 1
{4}
н/о н/о +24.2 +22.5 90 +32 +32 очень
душно
1010.7 1007.8
21 24.05 Ю 1
{3}
н/о н/о +23.7 +22.3 92 +31 +31 очень
душно
1010.9 1008.0
22 24.05 Ю 1
{2}
н/о н/о +23.0 +21.9 94 +31 +31 очень
душно
1010.6 1007.7
23 24.05 ЮЗ 1
{1}
н/о н/о +23.0 +22.1 95 +31 +31 очень
душно
1011.1 1008.2
00 25.05 ЮЗ 1
{1}
н/о н/о +22.7 +21.9 95 +30 +30 очень
душно
1011.3 1008.4
01 25.05 З 1
{2}
н/о н/о +22.5 +21.7 95 +30 +30 очень
душно
1011.0 1008.1
02 25.05 С 1
{1}
н/о н/о +22.7 +22.0 96 +31 +31 очень
душно
1010.0 1007.1
03 25.05 СВ 1
{2}
н/о н/о +22.9 +22.1 95 +31 +31 очень
душно
1008.9 1006.0
04 25.05 СВ 1
{2}
н/о н/о +22.9 +22.2 96 +31 +31 очень
душно
1008.6 1005.7
05 25.05 С 1
{2}
н/о н/о +22.6 +21.7 95 +30 +30 очень
душно
1008.3 1005.4
06 25.05 СВ 1
{2}
н/о н/о +22.6 +21.6 94 +30 +30 очень
душно
1007.9 1005.0
07 25.05 В 1
{2}
н/о н/о +22.4 +21.5 95 +30 +30 очень
душно
1007.7 1004.8
08 25.05 З 1
{3}
н/о н/о +22.0 +21.0 94 +28 +28 душно 1009.2 1006.3
09 25.05 ЮЗ 1
{3}
н/о н/о +22.2 +21.2 94 +29 +29 очень
душно
1010.2 1007.3
10 25.05 ЮЗ 1
{2}
н/о н/о +22.7 +21.8 95 +30 +30 очень
душно
1011.5 1008.6
11 25.05 ЮЗ 1
{3}
н/о н/о +23.9 +21.2 85 +30 +30 очень
душно
1012.2 1009.3
12 25.05 Ю 2
{4}
н/о н/о +25.8 +21.3 76 +33 +33 очень
душно
1012.7 1009.9
13 25.05 ЮЗ 1
{4}
н/о н/о +27.1 +21.0 69 +34 +34 очень
душно
1012.7 1009.9
14 25.05 Ю 1
{4}
н/о н/о +27.3 +20.1 65 +34 +34 очень
душно
1012.1 1009.3
15 25.05 Ю 2
{4}
н/о н/о +25.5 +19.5 69 +31 +31 очень
душно
1011.5 1008.7
16 25.05 Ю 2
{4}
н/о н/о +25.5 +19.1 68 +31 +31 очень
душно
1011.1 1008.3
17 25.05 Ю 2
{4}
н/о н/о +25.0 +18.6 68 +30 +30 душно 1011.2 1008.4
18 25.05 Ю 1
{5}
н/о н/о +24.2 +17.9 68 +28 +28 душно 1011.5 1008.6
19 25.05 ЮЗ 1
{4}
н/о н/о +23.6 +17.9 70 +28 +28 душно 1012.1 1009.2
20 25.05 ЮЗ 1
{5}
н/о н/о +22.7 +16.1 66 +27 +27 душно 1013.1 1010.2
21 25.05 ЮЗ 2
{5}
н/о н/о +22.2 +15.3 65 +26 +26 душно 1013.8 1010.9
22 25.05 ЮЗ 2
{5}
н/о н/о +21.5 +15.3 68 +25 +25 комфорт 1014.6 1011.7
23 25.05 ЮЗ 2
{6}
н/о н/о +21.1 +15.2 69 +24 +24 комфорт 1015.3 1012.4
00 26.05 ЮЗ 1
{5}
н/о н/о +20.4 +15.3 73 +24 +24 комфорт 1015.9 1013.0
01 26.05 Ю 1
{4}
н/о н/о +18.7 +15.7 83 +21 +21 комфорт 1016.0 1013.1
02 26.05 ЮЗ 2
{3}
н/о н/о +19.1 +15.6 80 +21 +21 комфорт 1015.8 1012.9
03 26.05 ЮЗ 1
{3}
н/о н/о +19.0 +15.0 78 +21 +21 комфорт 1015.7 1012.8
04 26.05 ЮЗ 1
{2}
н/о н/о +19.4 +14.9 75 +22 +22 комфорт 1015.5 1012.6
05 26.05 ЮЗ 1
{2}
н/о н/о +18.2 +15.5 84 +20 +20 1015.3 1012.4
06 26.05 ЮЗ 1
{4}
н/о н/о +19.3 +15.1 77 +22 +22 комфорт 1015.2 1012.3
07 26.05 ЮЗ 2
{4}
н/о н/о +20.4 +14.6 69 +24 +24 комфорт 1015.3 1012.4
08 26.05 СЗ 1
{5}
н/о н/о +18.7 +14.3 76 +21 +21 комфорт 1015.8 1012.9
09 26.05 СВ 1
{2}
н/о н/о +17.0 +14.9 87 +19 +19 1016.6 1013.7
10 26.05 СВ 1
{1}
н/о н/о +19.3 +16.0 81 +23 +23 комфорт 1017.5 1014.6
11 26.05 СЗ 1
{1}
н/о н/о +22.4 +15.1 63 +26 +26 жарко 1018.1 1015.2
12 26.05 ЮЗ 2
{4}
н/о н/о +24.2 +15.5 58 +27 +27 жарко 1018.3 1015.4
13 26.05 ЮЗ 1
{4}
н/о н/о +25.9 +17.5 60 +30 +30 душно 1018.2 1015.3
14 26.05 ЮЗ 1
{3}
н/о н/о +26.5 +17.2 57 +31 +31 душно 1017.5 1014.6
15 26.05 Ю 1
{4}
н/о н/о +27.0 +18.3 59 +32 +32 очень
душно
1016.6 1013.8
16 26.05 Ю 1
{4}
н/о н/о +24.8 +18.5 68 +29 +29 душно 1016.0 1013.1

 

Местоположение метеостанции Макаэ (Рио-де-Жанейро, Бразилия): широта -22.38 долгота -41.81 высота над уровнем моря 34 м.

В архиве по умолчанию представлена погода в Макаэ за последнюю неделю. Архивные данные за месяц целиком и за предыдущие месяцы, начиная с января 2011 года, Вы можете получить, выбрав интересующий диапазон дат из раскрывающегося списка и нажав кнопку "Ввод!".


*Определитесь, кто Вы:
робот инопланетянин человек

Внимание! Время в таблицах - всемирное. Для получения местного времени необходимо прибавить поправку, которая равна -3 ч.

Смотрите также архив погоды в соседних городах и на ближайших метеорологических станциях:

Погода в Кордейру (Рио-де-Жанейро, Бразилия) (69 км)
Погода в Силва-Жардине (Рио-де-Жанейро, Бразилия) (70 км)
Погода в Арраял-ду-Кабу (Рио-де-Жанейро, Бразилия) (70 км)
Погода в Кампусе (Рио-де-Жанейро, Бразилия) (86 км)
Погода в Сан-Томе (Рио-де-Жанейро, Бразилия) (87 км)
Погода в Кампусе (Рио-де-Жанейро, Бразилия) (87 км)
Погода в Нова-Фрибургу (Рио-де-Жанейро, Бразилия) (90 км)
Погода в Камбуси (Рио-де-Жанейро, Бразилия) (90 км)
Погода в Сакуареме (Рио-де-Жанейро, Бразилия) (99 км)
Погода в Терезополисе (Рио-де-Жанейро, Бразилия) (122 км)

Пояснения к столбцам:

Ветер - указаны скорость ветра в м/с - средняя за 10 мин, порывы в срок и между сроками (в фигурных скобках) и направление, откуда дует ветер: С - северный, СВ - северо-восточный, В - восточный, ЮВ - юго-восточный, Ю - южный, ЮЗ - юго-западный, З - западный, СЗ - северо-западный.
Видимость - горизонтальная дальность видимости в метрах или километрах. При видимости от 1 до 10 км при отсутствии осадков обычно наблюдается дымка, при ухудшении видимости до 1 км и менее - туман. В сухую погоду видимость может ухудшаться дымом, пылью или мглою.
Явления - указаны атмосферные явления, наблюдавшиеся в срок или в последний час перед сроком; фигурными скобками обозначены явления, наблюдавшиеся между сроками (за 1-3 часа до срока); квадратными скобками обозначены град или гололедные отложения с указанием их диаметра в мм.
Облачность - указаны через наклонную черту общая и нижняя облачность в баллах и высота нижней границы облаков в метрах; квадратными скобками обозначены формы облаков: Ci - перистые, Cs - перисто-слоистые, Cc - перисто-кучевые, Ac - высококучевые, As - высокослоистые, Sc - слоисто-кучевые, Ns - слоисто-дождевые, Cu - кучевые, Cb - кучево-дождевые. Подробнее классификацию облаков см. в Атласе облаков (PDF).
T - Температура воздуха - температура, измеренная на высоте 2 м над землей.
Td - Температура точки росы - температура, при понижении до которой содержащийся в воздухе водяной пар достигнет насыщения.
f - Относительная влажность воздуха - влажноcть воздуха, измеренная на высоте 2 м над землей.
Te - Эффективная температура - температура, которую ощущает одетый по сезону человек в тени. Характеристика душности погоды. При расчете учитывается влияние влажности воздуха и скорости ветра на теплоощущения человека.
Tes - Эффективная температура на солнце - температура, которую ощущает человек, с поправкой на солнечный нагрев. Характеристика знойности погоды. Зависит от высоты солнца над горизонтом, облачности и скорости ветра. Ночью, в пасмурную погоду, а также при ветре 12 м/с и более поправка равна нулю.
P - Атмосферное давление - приведенное к уровню моря атмосферное давление.
Po - Атмосферное давление - измеренное на уровне метеостанции атмосферное давление.
Tmin - Минимальная температура - минимум температуры воздуха на высоте 2 м над землей.
Tmax - Максимальная температура - максимум температуры воздуха на высоте 2 м над землей.
R - Количество осадков - Количество выпавших осадков за период времени, мм. При наведении курсора мыши на число - период времени, за который выпало указанное количество осадков.
R24 - Количество осадков - Количество выпавших осадков за 24 часа, мм.
S - Снежный покров - Высота снежного покрова, см. При наведении курсора мыши на число - состояние снежного покрова и степень покрытия местности в баллах.